����������;��������(kVARh)
2016-06-06 00:00;0,1
2016-06-06 00:15;0
2016-06-06 00:30;0,5
2016-06-06 00:45;0,4
2016-06-06 01:00;6,45
2016-06-06 01:15;15,45
2016-06-06 01:30;11,1
2016-06-06 01:45;3,6
2016-06-06 02:00;0,6
2016-06-06 02:15;0,6
2016-06-06 02:30;1,2
2016-06-06 02:45;0,95
2016-06-06 03:00;0,15
2016-06-06 03:15;0,3
2016-06-06 03:30;0,55
2016-06-06 03:45;0,3
2016-06-06 04:00;0,25
2016-06-06 04:15;0,6
2016-06-06 04:30;1,35
2016-06-06 04:45;0,85
2016-06-06 05:00;0,5
2016-06-06 05:15;0,5
2016-06-06 05:30;1,5
2016-06-06 05:45;0,45
2016-06-06 06:00;1,25
2016-06-06 06:15;1,05
2016-06-06 06:30;3,05
2016-06-06 06:45;1,85
2016-06-06 07:00;1,1
2016-06-06 07:15;8,15
2016-06-06 07:30;6,6
2016-06-06 07:45;18,4
2016-06-06 08:00;25
2016-06-06 08:15;16,5
2016-06-06 08:30;22,3
2016-06-06 08:45;25,05
2016-06-06 09:00;36,5
2016-06-06 09:15;35,85
2016-06-06 09:30;32,85
2016-06-06 09:45;29,65
2016-06-06 10:00;30,4
2016-06-06 10:15;29,45
2016-06-06 10:30;32,6
2016-06-06 10:45;42,15
2016-06-06 11:00;46,75
2016-06-06 11:15;40,55
2016-06-06 11:30;41,85
2016-06-06 11:45;46,7
2016-06-06 12:00;52,15
2016-06-06 12:15;52,5
2016-06-06 12:30;57,95
2016-06-06 12:45;54,45
2016-06-06 13:00;40,05
2016-06-06 13:15;40,9
2016-06-06 13:30;40
2016-06-06 13:45;50,75
2016-06-06 14:00;52,45
2016-06-06 14:15;50,05
2016-06-06 14:30;54,4
2016-06-06 14:45;55,8
2016-06-06 15:00;50,85
2016-06-06 15:15;59,05
2016-06-06 15:30;57,35
2016-06-06 15:45;42,35
2016-06-06 16:00;42,1
2016-06-06 16:15;47,15
2016-06-06 16:30;38,55
2016-06-06 16:45;39,85
2016-06-06 17:00;38,65
2016-06-06 17:15;32,6
2016-06-06 17:30;37,95
2016-06-06 17:45;34,1
2016-06-06 18:00;37,4
2016-06-06 18:15;30,95
2016-06-06 18:30;23,7
2016-06-06 18:45;30,7
2016-06-06 19:00;32,35
2016-06-06 19:15;22,85
2016-06-06 19:30;19,8
2016-06-06 19:45;18,65
2016-06-06 20:00;18,65
2016-06-06 20:15;14,3
2016-06-06 20:30;13,45
2016-06-06 20:45;12
2016-06-06 21:00;11,3
2016-06-06 21:15;11
2016-06-06 21:30;11,2
2016-06-06 21:45;7,9
2016-06-06 22:00;8,15
2016-06-06 22:15;14,55
2016-06-06 22:30;13,85
2016-06-06 22:45;15,45
2016-06-06 23:00;10,75
2016-06-06 23:15;7,4
2016-06-06 23:30;8,75
2016-06-06 23:45;5,4
2016-06-07 00:00;4,3
2016-06-07 00:15;4,95
2016-06-07 00:30;6,35
2016-06-07 00:45;4,45
2016-06-07 01:00;3,75
2016-06-07 01:15;0
2016-06-07 01:30;0,05
2016-06-07 01:45;0,05
2016-06-07 02:00;0
2016-06-07 02:15;0
2016-06-07 02:30;0
2016-06-07 02:45;0
2016-06-07 03:00;0
2016-06-07 03:15;0
2016-06-07 03:30;0
2016-06-07 03:45;0
2016-06-07 04:00;0
2016-06-07 04:15;0
2016-06-07 04:30;0
2016-06-07 04:45;0
2016-06-07 05:00;1,3
2016-06-07 05:15;4,55
2016-06-07 05:30;0,5
2016-06-07 05:45;0,1
2016-06-07 06:00;1
2016-06-07 06:15;6,05
2016-06-07 06:30;0,3
2016-06-07 06:45;0,75
2016-06-07 07:00;1,8
2016-06-07 07:15;1,6
2016-06-07 07:30;4,45
2016-06-07 07:45;14,7
2016-06-07 08:00;18,4
2016-06-07 08:15;7,9
2016-06-07 08:30;13,1
2016-06-07 08:45;11,85
2016-06-07 09:00;24,75
2016-06-07 09:15;25,65
2016-06-07 09:30;23,1
2016-06-07 09:45;25,6
2016-06-07 10:00;31,5
2016-06-07 10:15;48
2016-06-07 10:30;58,7
2016-06-07 10:45;60,25
2016-06-07 11:00;54,2
2016-06-07 11:15;57,5
2016-06-07 11:30;59,95
2016-06-07 11:45;61,9
2016-06-07 12:00;65,8
2016-06-07 12:15;60,1
2016-06-07 12:30;56,45
2016-06-07 12:45;56,75
2016-06-07 13:00;55,35
2016-06-07 13:15;60,3
2016-06-07 13:30;54,8
2016-06-07 13:45;53,25
2016-06-07 14:00;55,65
2016-06-07 14:15;53,85
2016-06-07 14:30;54
2016-06-07 14:45;58,4
2016-06-07 15:00;53,4
2016-06-07 15:15;48,8
2016-06-07 15:30;54,25
2016-06-07 15:45;51,9
2016-06-07 16:00;50,45
2016-06-07 16:15;44,05
2016-06-07 16:30;45
2016-06-07 16:45;36,9
2016-06-07 17:00;34,15
2016-06-07 17:15;31,2
2016-06-07 17:30;25,8
2016-06-07 17:45;21,15
2016-06-07 18:00;23,85
2016-06-07 18:15;26,5
2016-06-07 18:30;21,7
2016-06-07 18:45;21,75
2016-06-07 19:00;22,75
2016-06-07 19:15;16,35
2016-06-07 19:30;16,4
2016-06-07 19:45;12,7
2016-06-07 20:00;11,75
2016-06-07 20:15;17,05
2016-06-07 20:30;16,4
2016-06-07 20:45;14,95
2016-06-07 21:00;12,3
2016-06-07 21:15;11,45
2016-06-07 21:30;10,75
2016-06-07 21:45;8
2016-06-07 22:00;6,2
2016-06-07 22:15;6,05
2016-06-07 22:30;7
2016-06-07 22:45;7,7
2016-06-07 23:00;10,1
2016-06-07 23:15;6,35
2016-06-07 23:30;5,15
2016-06-07 23:45;3,55
2016-06-08 00:00;0,6
2016-06-08 00:15;1,75
2016-06-08 00:30;3,2
2016-06-08 00:45;3,05
2016-06-08 01:00;4,8
2016-06-08 01:15;1,7
2016-06-08 01:30;3,85
2016-06-08 01:45;0
2016-06-08 02:00;0
2016-06-08 02:15;0
2016-06-08 02:30;0
2016-06-08 02:45;0
2016-06-08 03:00;0,2
2016-06-08 03:15;0
2016-06-08 03:30;0
2016-06-08 03:45;0
2016-06-08 04:00;0
2016-06-08 04:15;0
2016-06-08 04:30;0
2016-06-08 04:45;0
2016-06-08 05:00;0
2016-06-08 05:15;0
2016-06-08 05:30;1,35
2016-06-08 05:45;8,45
2016-06-08 06:00;14,95
2016-06-08 06:15;15,9
2016-06-08 06:30;10,95
2016-06-08 06:45;10,05
2016-06-08 07:00;9,8
2016-06-08 07:15;5,6
2016-06-08 07:30;4,35
2016-06-08 07:45;17,65
2016-06-08 08:00;26,25
2016-06-08 08:15;23,55
2016-06-08 08:30;24,35
2016-06-08 08:45;16,85
2016-06-08 09:00;20,7
2016-06-08 09:15;24,35
2016-06-08 09:30;17,5
2016-06-08 09:45;29,6
2016-06-08 10:00;32,65
2016-06-08 10:15;25,5
2016-06-08 10:30;32,05
2016-06-08 10:45;37,45
2016-06-08 11:00;44,1
2016-06-08 11:15;37,4
2016-06-08 11:30;45,2
2016-06-08 11:45;42,3
2016-06-08 12:00;44,2
2016-06-08 12:15;50,45
2016-06-08 12:30;44,75
2016-06-08 12:45;46,85
2016-06-08 13:00;49,45
2016-06-08 13:15;43,65
2016-06-08 13:30;44,05
2016-06-08 13:45;54,1
2016-06-08 14:00;53,95
2016-06-08 14:15;42,8
2016-06-08 14:30;48,1
2016-06-08 14:45;50,7
2016-06-08 15:00;53,7
2016-06-08 15:15;50,6
2016-06-08 15:30;47,6
2016-06-08 15:45;36,65
2016-06-08 16:00;39,45
2016-06-08 16:15;33,6
2016-06-08 16:30;31,85
2016-06-08 16:45;31,75
2016-06-08 17:00;30,25
2016-06-08 17:15;24,95
2016-06-08 17:30;22,85
2016-06-08 17:45;22,55
2016-06-08 18:00;22,35
2016-06-08 18:15;28,5
2016-06-08 18:30;24,1
2016-06-08 18:45;23,4
2016-06-08 19:00;19,65
2016-06-08 19:15;19,75
2016-06-08 19:30;19,8
2016-06-08 19:45;17,9
2016-06-08 20:00;15,65
2016-06-08 20:15;10,35
2016-06-08 20:30;6,85
2016-06-08 20:45;5
2016-06-08 21:00;1,7
2016-06-08 21:15;1,35
2016-06-08 21:30;0,7
2016-06-08 21:45;1,3
2016-06-08 22:00;0,9
2016-06-08 22:15;1,8
2016-06-08 22:30;4,15
2016-06-08 22:45;4,4
2016-06-08 23:00;3,95
2016-06-08 23:15;2,7
2016-06-08 23:30;1
2016-06-08 23:45;3
2016-06-09 00:00;1
2016-06-09 00:15;0
2016-06-09 00:30;0,1
2016-06-09 00:45;0
2016-06-09 01:00;0
2016-06-09 01:15;0
2016-06-09 01:30;0
2016-06-09 01:45;0
2016-06-09 02:00;0
2016-06-09 02:15;0
2016-06-09 02:30;0
2016-06-09 02:45;0,2
2016-06-09 03:00;0
2016-06-09 03:15;0
2016-06-09 03:30;0
2016-06-09 03:45;0
2016-06-09 04:00;0
2016-06-09 04:15;0
2016-06-09 04:30;0
2016-06-09 04:45;0,35
2016-06-09 05:00;0
2016-06-09 05:15;0,15
2016-06-09 05:30;0,1
2016-06-09 05:45;0
2016-06-09 06:00;15,75
2016-06-09 06:15;28,55
2016-06-09 06:30;20,05
2016-06-09 06:45;17,5
2016-06-09 07:00;13,35
2016-06-09 07:15;11,55
2016-06-09 07:30;7,3
2016-06-09 07:45;20
2016-06-09 08:00;20,55
2016-06-09 08:15;13
2016-06-09 08:30;19,15
2016-06-09 08:45;15,35
2016-06-09 09:00;24,4
2016-06-09 09:15;20,1
2016-06-09 09:30;20,5
2016-06-09 09:45;16,6
2016-06-09 10:00;39,45
2016-06-09 10:15;30,65
2016-06-09 10:30;35,5
2016-06-09 10:45;31,1
2016-06-09 11:00;42,4
2016-06-09 11:15;41,8
2016-06-09 11:30;38,35
2016-06-09 11:45;44,2
2016-06-09 12:00;40,15
2016-06-09 12:15;35,95
2016-06-09 12:30;41,55
2016-06-09 12:45;44,3
2016-06-09 13:00;42,9
2016-06-09 13:15;45,2
2016-06-09 13:30;45,9
2016-06-09 13:45;49,7
2016-06-09 14:00;44,9
2016-06-09 14:15;49,25
2016-06-09 14:30;49,2
2016-06-09 14:45;52,55
2016-06-09 15:00;45,55
2016-06-09 15:15;41,35
2016-06-09 15:30;38,2
2016-06-09 15:45;43,75
2016-06-09 16:00;42,65
2016-06-09 16:15;35,85
2016-06-09 16:30;36,95
2016-06-09 16:45;34,1
2016-06-09 17:00;32,25
2016-06-09 17:15;24,55
2016-06-09 17:30;25,6
2016-06-09 17:45;25,3
2016-06-09 18:00;22,8
2016-06-09 18:15;22,4
2016-06-09 18:30;21,5
2016-06-09 18:45;22,5
2016-06-09 19:00;20,4
2016-06-09 19:15;17,6
2016-06-09 19:30;16,25
2016-06-09 19:45;11,75
2016-06-09 20:00;9,65
2016-06-09 20:15;7,7
2016-06-09 20:30;7,55
2016-06-09 20:45;9,45
2016-06-09 21:00;8,85
2016-06-09 21:15;10,6
2016-06-09 21:30;9,7
2016-06-09 21:45;5,6
2016-06-09 22:00;4,8
2016-06-09 22:15;4,25
2016-06-09 22:30;5,55
2016-06-09 22:45;9,1
2016-06-09 23:00;14,75
2016-06-09 23:15;2,55
2016-06-09 23:30;1,6
2016-06-09 23:45;2,05
2016-06-10 00:00;0,5
2016-06-10 00:15;0,2
2016-06-10 00:30;0
2016-06-10 00:45;0
2016-06-10 01:00;0
2016-06-10 01:15;0
2016-06-10 01:30;0,35
2016-06-10 01:45;0
2016-06-10 02:00;0,05
2016-06-10 02:15;0,75
2016-06-10 02:30;0,85
2016-06-10 02:45;0,25
2016-06-10 03:00;0,1
2016-06-10 03:15;0,1
2016-06-10 03:30;1,35
2016-06-10 03:45;2,6
2016-06-10 04:00;1,05
2016-06-10 04:15;0,2
2016-06-10 04:30;0,05
2016-06-10 04:45;0,15
2016-06-10 05:00;1,25
2016-06-10 05:15;0,2
2016-06-10 05:30;0
2016-06-10 05:45;1,25
2016-06-10 06:00;3,3
2016-06-10 06:15;10,15
2016-06-10 06:30;9,55
2016-06-10 06:45;23,2
2016-06-10 07:00;18,05
2016-06-10 07:15;16,25
2016-06-10 07:30;11,8
2016-06-10 07:45;22,05
2016-06-10 08:00;22,1
2016-06-10 08:15;13,85
2016-06-10 08:30;26,25
2016-06-10 08:45;23,1
2016-06-10 09:00;33,35
2016-06-10 09:15;30,35
2016-06-10 09:30;27,95
2016-06-10 09:45;28,3
2016-06-10 10:00;31,2
2016-06-10 10:15;33,2
2016-06-10 10:30;47,1
2016-06-10 10:45;39,65
2016-06-10 11:00;44,85
2016-06-10 11:15;39,35
2016-06-10 11:30;40,3
2016-06-10 11:45;46,3
2016-06-10 12:00;48,9
2016-06-10 12:15;54,3
2016-06-10 12:30;61,6
2016-06-10 12:45;63,25
2016-06-10 13:00;61,55
2016-06-10 13:15;61,25
2016-06-10 13:30;55,3
2016-06-10 13:45;71,05
2016-06-10 14:00;66,1
2016-06-10 14:15;61,9
2016-06-10 14:30;60,25
2016-06-10 14:45;50,15
2016-06-10 15:00;41,15
2016-06-10 15:15;43,3
2016-06-10 15:30;46,95
2016-06-10 15:45;33,35
2016-06-10 16:00;35,1
2016-06-10 16:15;27,55
2016-06-10 16:30;25,75
2016-06-10 16:45;35,2
2016-06-10 17:00;31,7
2016-06-10 17:15;24,6
2016-06-10 17:30;25,25
2016-06-10 17:45;23,1
2016-06-10 18:00;21,5
2016-06-10 18:15;23,1
2016-06-10 18:30;16,9
2016-06-10 18:45;20,2
2016-06-10 19:00;17,95
2016-06-10 19:15;11,95
2016-06-10 19:30;17,85
2016-06-10 19:45;16,85
2016-06-10 20:00;13,05
2016-06-10 20:15;15,5
2016-06-10 20:30;22,3
2016-06-10 20:45;23,3
2016-06-10 21:00;18,6
2016-06-10 21:15;15,75
2016-06-10 21:30;18,05
2016-06-10 21:45;17,9
2016-06-10 22:00;9,4
2016-06-10 22:15;8,75
2016-06-10 22:30;9,7
2016-06-10 22:45;6,3
2016-06-10 23:00;9,85
2016-06-10 23:15;5,75
2016-06-10 23:30;1,2
2016-06-10 23:45;1,15
2016-06-11 00:00;0
2016-06-11 00:15;0
2016-06-11 00:30;0,15
2016-06-11 00:45;0,2
2016-06-11 01:00;0,15
2016-06-11 01:15;0
2016-06-11 01:30;0
2016-06-11 01:45;0
2016-06-11 02:00;0
2016-06-11 02:15;0
2016-06-11 02:30;0
2016-06-11 02:45;0
2016-06-11 03:00;0
2016-06-11 03:15;0
2016-06-11 03:30;0
2016-06-11 03:45;0
2016-06-11 04:00;0
2016-06-11 04:15;0
2016-06-11 04:30;0
2016-06-11 04:45;0
2016-06-11 05:00;0
2016-06-11 05:15;0
2016-06-11 05:30;0
2016-06-11 05:45;0
2016-06-11 06:00;0
2016-06-11 06:15;0
2016-06-11 06:30;0
2016-06-11 06:45;0
2016-06-11 07:00;0
2016-06-11 07:15;0
2016-06-11 07:30;0
2016-06-11 07:45;0
2016-06-11 08:00;0
2016-06-11 08:15;0
2016-06-11 08:30;0
2016-06-11 08:45;0
2016-06-11 09:00;0
2016-06-11 09:15;0
2016-06-11 09:30;0
2016-06-11 09:45;0
2016-06-11 10:00;0,05
2016-06-11 10:15;0,1
2016-06-11 10:30;0
2016-06-11 10:45;9,65
2016-06-11 11:00;5,2
2016-06-11 11:15;0,25
2016-06-11 11:30;5,4
2016-06-11 11:45;5,4
2016-06-11 12:00;11,5
2016-06-11 12:15;11
2016-06-11 12:30;8,6
2016-06-11 12:45;5,55
2016-06-11 13:00;3,85
2016-06-11 13:15;0,35
2016-06-11 13:30;0,25
2016-06-11 13:45;0,25
2016-06-11 14:00;0,3
2016-06-11 14:15;1,45
2016-06-11 14:30;4,75
2016-06-11 14:45;6,15
2016-06-11 15:00;4,95
2016-06-11 15:15;8,3
2016-06-11 15:30;7,7
2016-06-11 15:45;9
2016-06-11 16:00;9,05
2016-06-11 16:15;7,15
2016-06-11 16:30;9,25
2016-06-11 16:45;10,3
2016-06-11 17:00;6,35
2016-06-11 17:15;0,8
2016-06-11 17:30;0,95
2016-06-11 17:45;0,85
2016-06-11 18:00;0,05
2016-06-11 18:15;0,6
2016-06-11 18:30;2,75
2016-06-11 18:45;5,9
2016-06-11 19:00;8,45
2016-06-11 19:15;7,3
2016-06-11 19:30;2,45
2016-06-11 19:45;2,55
2016-06-11 20:00;1,7
2016-06-11 20:15;1,75
2016-06-11 20:30;1,35
2016-06-11 20:45;1,85
2016-06-11 21:00;0,5
2016-06-11 21:15;0,15
2016-06-11 21:30;5,95
2016-06-11 21:45;5,6
2016-06-11 22:00;5,8
2016-06-11 22:15;7,1
2016-06-11 22:30;9,55
2016-06-11 22:45;12,15
2016-06-11 23:00;12,5
2016-06-11 23:15;11,3
2016-06-11 23:30;10,7
2016-06-11 23:45;11,7
2016-06-12 00:00;9,6
2016-06-12 00:15;10,6
2016-06-12 00:30;11,4
2016-06-12 00:45;12,25
2016-06-12 01:00;13,05
2016-06-12 01:15;13
2016-06-12 01:30;13,9
2016-06-12 01:45;0,1
2016-06-12 02:00;0
2016-06-12 02:15;0
2016-06-12 02:30;0
2016-06-12 02:45;0
2016-06-12 03:00;0
2016-06-12 03:15;0,05
2016-06-12 03:30;0,35
2016-06-12 03:45;0,15
2016-06-12 04:00;0,7
2016-06-12 04:15;0,05
2016-06-12 04:30;0
2016-06-12 04:45;0,05
2016-06-12 05:00;0
2016-06-12 05:15;0
2016-06-12 05:30;0
2016-06-12 05:45;0
2016-06-12 06:00;4,35
2016-06-12 06:15;6,15
2016-06-12 06:30;6,85
2016-06-12 06:45;6,65
2016-06-12 07:00;2,45
2016-06-12 07:15;0,7
2016-06-12 07:30;1,3
2016-06-12 07:45;0,5
2016-06-12 08:00;1,6
2016-06-12 08:15;3,5
2016-06-12 08:30;4,95
2016-06-12 08:45;9
2016-06-12 09:00;6,6
2016-06-12 09:15;7,4
2016-06-12 09:30;6,15
2016-06-12 09:45;4,8
2016-06-12 10:00;5,45
2016-06-12 10:15;7,9
2016-06-12 10:30;9,7
2016-06-12 10:45;12,15
2016-06-12 11:00;17,7
2016-06-12 11:15;16,9
2016-06-12 11:30;18
2016-06-12 11:45;17,4
2016-06-12 12:00;16,9
2016-06-12 12:15;16,2
2016-06-12 12:30;15,35
2016-06-12 12:45;14,05
2016-06-12 13:00;13,35
2016-06-12 13:15;14
2016-06-12 13:30;15,05
2016-06-12 13:45;14,15
2016-06-12 14:00;16,2
2016-06-12 14:15;16,75
2016-06-12 14:30;17,7
2016-06-12 14:45;21,75
2016-06-12 15:00;23,4
2016-06-12 15:15;24,4
2016-06-12 15:30;23,6
2016-06-12 15:45;20,4
2016-06-12 16:00;21,95
2016-06-12 16:15;21,6
2016-06-12 16:30;22,6
2016-06-12 16:45;18,75
2016-06-12 17:00;13,35
2016-06-12 17:15;13,4
2016-06-12 17:30;13,9
2016-06-12 17:45;12,9
2016-06-12 18:00;12,2
2016-06-12 18:15;14,55
2016-06-12 18:30;14,2
2016-06-12 18:45;14,25
2016-06-12 19:00;15,8
2016-06-12 19:15;14,65
2016-06-12 19:30;12,35
2016-06-12 19:45;12,25
2016-06-12 20:00;14,35
2016-06-12 20:15;12,9
2016-06-12 20:30;13,65
2016-06-12 20:45;14,05
2016-06-12 21:00;16,15
2016-06-12 21:15;14
2016-06-12 21:30;12,55
2016-06-12 21:45;10
2016-06-12 22:00;4,9
2016-06-12 22:15;4,2
2016-06-12 22:30;6,05
2016-06-12 22:45;5,45
2016-06-12 23:00;8
2016-06-12 23:15;5,75
2016-06-12 23:30;7,85
2016-06-12 23:45;5,9

